Location: Muenchen
(48.1800°N, 11.5800°E)
Time: 00:08:45
(UTC+02:00)

Tiros 1 - Visible Passes

Search period start: 24 April 2014 00:00
Search period end: 04 May 2014 00:00
Orbit: 633 x 668 km, 48.4° (Epoch: 22 April)

Date Brightness Start Highest point End Pass type
(mag) Time Alt. Az. Time Alt. Az. Time Alt. Az.
24 Apr 8.5 00:08:26 10° W 00:10:55 31° W 00:10:55 31° W visible
24 Apr 7.6 21:11:42 10° SW 21:16:06 41° SSE 21:20:33 10° E visible
24 Apr 7.0 22:53:27 10° W 22:58:10 87° S 22:59:43 43° E visible
25 Apr 9.0 00:35:46 10° W 00:37:28 22° W 00:37:28 22° W visible
25 Apr 7.1 21:38:35 10° WSW 21:43:14 65° SSE 21:47:56 10° E visible
25 Apr 7.1 23:20:47 10° W 23:25:31 86° N 23:26:00 72° E visible
26 Apr 9.5 01:03:06 10° W 01:03:45 14° W 01:03:45 14° W visible
26 Apr 7.1 22:05:47 10° WSW 22:10:30 86° S 22:14:23 15° E visible
26 Apr 7.3 23:48:06 10° W 23:52:08 64° W 23:52:08 64° W visible
27 Apr 7.2 20:50:56 10° WSW 20:55:33 64° SSE 21:00:14 10° E visible
27 Apr 7.1 22:33:06 10° W 22:37:50 86° N 22:40:24 27° E visible
28 Apr 8.3 00:15:25 10° W 00:18:08 33° W 00:18:08 33° W visible
28 Apr 7.1 21:18:07 10° WSW 21:22:49 85° S 21:27:34 10° E visible
28 Apr 7.0 23:00:26 10° W 23:05:10 87° S 23:06:21 51° ESE visible
29 Apr 9.2 00:42:48 10° W 00:44:05 18° W 00:44:05 18° W visible
29 Apr 7.2 21:45:26 10° W 21:50:08 86° N 21:54:31 12° E visible
29 Apr 7.1 23:27:45 10° W 23:32:15 65° SW 23:32:15 65° SW visible
30 Apr 7.1 22:12:45 10° W 22:17:28 87° S 22:20:24 23° E visible
30 Apr 8.3 23:55:06 10° W 23:58:08 33° WSW 23:58:08 33° WSW visible
01 May 7.2 20:57:45 10° W 21:02:27 86° N 21:07:11 10° E visible
01 May 7.1 22:40:04 10° W 22:44:44 67° SSW 22:46:17 41° SE visible
02 May 9.3 00:22:44 10° W 00:24:00 16° W 00:24:00 16° W visible
02 May 7.2 21:25:04 10° W 21:29:46 88° S 21:34:25 11° E visible
02 May 7.6 23:07:25 10° W 23:11:52 43° SSW 23:12:09 43° SSW visible
03 May 7.2 21:52:22 10° W 21:57:02 69° SSW 22:00:18 20° ESE visible
03 May 8.6 23:35:00 10° W 23:38:02 24° SW 23:38:02 24° SW visible
